Alyeska Resort
Hourly Weather - Mid Mountian Site
ALY_MID_HR 11/28/2014
CLICK TO VIEW GRAPH!!

        DATE  TIME   Air   H2o   H2o   New  Snow  BATT   Rel
                    Temp  Inch Since  Snow Depth  Volt  Hum%
                      F   1HR  0600   1HR         AVG   AVG

  11/27/2014 24:00    23  0.00  0.01   0.9  8.61 13.59    77
  11/27/2014 23:00    23  0.00  0.01   0.9  8.92 13.59    80
  11/27/2014 22:00    23  0.00  0.01   0.9  9.45 13.60    84
  11/27/2014 21:00    22  0.00  0.01   0.9  9.61 13.60    85
  11/27/2014 20:00    22  0.00  0.01   0.9  9.60 13.60    88
  11/27/2014 19:00    22  0.00  0.01   0.9  9.62 13.61    89
  11/27/2014 18:00    22  0.00  0.01   0.9  9.72 13.61    92
  11/27/2014 17:00    22  0.00  0.01   0.9  9.59 13.62    92
  11/27/2014 16:00    22  0.00  0.01   0.9  9.21 13.62    94
  11/27/2014 15:00    21  0.00  0.01   0.9  9.55 13.64    95
  11/27/2014 14:00    19  0.00  0.01   0.8  9.41 13.64    94
  11/27/2014 13:00    19  0.00  0.01   0.8  9.49 13.64    94
  11/27/2014 12:00    19  0.00  0.01   0.8  9.57 13.63    93
  11/27/2014 11:00    19  0.00  0.01   0.8  9.48 13.63    94
  11/27/2014 10:00    19  0.00  0.01   0.8  9.49 13.63    93
  11/27/2014 09:00    19  0.01  0.01   0.8  9.51 13.62    94
  11/27/2014 08:00    19  0.00  0.00   0.9  8.79 13.61    93
  11/27/2014 07:00    20  0.00  0.00   0.9  9.12 13.61    93
  11/27/2014 06:00    21  0.00  0.06   0.9  9.49 13.60    94
  11/27/2014 05:00    21  0.01  0.06   0.8  7.93 13.59    94
  11/27/2014 04:00    21  0.01  0.05   0.7  9.08 13.59    94
  11/27/2014 03:00    21  0.00  0.04   0.7  9.05 13.59    94
  11/27/2014 02:00    22  0.01  0.04   0.5  5.99 13.58    95
  11/27/2014 01:00    22  0.00  0.03   0.5  8.93 13.58    95


CLICK TO VIEW GRAPH!!